EDT,Max TemperatureF,Mean TemperatureF,Min TemperatureF,Max Dew PointF,MeanDew PointF,Min DewpointF,Max Humidity, Mean Humidity, Min Humidity, Max Sea Level PressureIn, Mean Sea Level PressureIn, Min Sea Level PressureIn, Max VisibilityMiles, Mean VisibilityMiles, Min VisibilityMiles, Max Wind SpeedMPH, Mean Wind SpeedMPH, Max Gust SpeedMPH,PrecipitationIn, CloudCover, Events, WindDirDegrees
2013-4-1,51,40,29,39,30,8,92,62,32,29.81,29.66,29.53,10,9,5,25,7,33,0.16,7,Rain,256
2013-4-2,35,30,24,19,11,5,58,47,35,29.92,29.85,29.80,10,9,1,28,11,37,T,5,Snow,264
2013-4-3,42,33,24,10,6,2,46,33,20,30.19,30.01,29.93,10,10,10,24,12,35,0.00,1,,282
2013-4-4,51,37,22,21,13,6,65,44,22,30.30,30.16,29.98,10,10,10,16,4,23,0.00,0,,255
2013-4-5,53,41,28,25,21,15,78,51,24,29.97,29.86,29.72,10,10,10,18,5,25,T,2,,302
2013-4-6,42,33,24,16,6,0,60,39,18,30.33,30.21,29.96,10,10,10,22,8,35,0.00,2,,315
2013-4-7,57,40,22,32,21,12,77,52,26,30.30,30.10,29.94,10,10,9,22,6,32,T,2,,175
2013-4-8,60,46,32,32,30,27,89,59,28,30.11,30.04,29.96,10,10,10,14,3,22,T,3,,305
2013-4-9,62,51,39,46,39,34,100,68,36,30.04,29.93,29.88,10,6,0,13,4,18,0.14,6,Fog-Rain,312
2013-4-10,56,49,42,45,43,39,100,81,61,30.01,29.94,29.88,10,6,2,9,3,12,0.69,8,Rain,36
2013-4-11,44,40,35,43,33,20,92,66,39,30.17,30.03,29.90,10,8,3,13,3,28,0.04,8,Rain,334
2013-4-12,35,33,30,31,29,24,92,85,78,30.18,29.98,29.86,10,3,0,13,2,32,0.13,8,Fog-Rain-Snow,73
2013-4-13,52,42,31,37,31,28,100,71,41,29.95,29.85,29.81,10,7,2,17,2,23,0.04,8,Rain-Snow,277
2013-4-14,49,39,28,36,30,23,100,68,36,30.26,30.00,29.92,10,6,0,21,5,26,T,6,Fog-Rain,281
2013-4-15,59,42,25,36,28,22,92,63,33,30.39,30.32,30.26,10,10,10,13,2,17,0.00,1,,161
2013-4-16,63,50,36,52,42,30,89,69,48,30.35,30.18,30.02,10,10,6,18,7,26,0.06,7,Rain,179
2013-4-17,60,46,32,49,29,22,93,59,24,30.38,30.23,30.07,10,10,10,8,7,13,0.00,1,,320
2013-4-18,64,46,28,39,29,25,92,61,29,30.44,30.28,30.09,10,10,10,23,8,31,0.00,5,,171
2013-4-19,72,61,50,61,54,42,93,77,61,30.06,29.79,29.57,10,9,2,23,10,31,0.34,7,Rain-Thunderstorm,183
2013-4-20,51,43,35,43,29,14,83,57,31,30.27,29.91,29.69,10,10,5,25,10,38,0.22,5,Rain,264
2013-4-21,50,39,27,22,15,9,75,48,21,30.71,30.53,30.29,10,10,10,15,5,22,0.00,1,,321
2013-4-22,55,40,24,26,20,15,81,53,24,30.77,30.68,30.60,10,10,10,16,5,23,0.00,0,,119
2013-4-23,41,34,27,35,31,25,92,81,70,30.61,30.43,30.20,10,10,10,9,3,10,0.00,7,,61
2013-4-24,75,57,38,46,40,35,100,64,27,30.16,29.94,29.73,10,8,2,17,5,25,0.00,5,,162
2013-4-25,57,44,30,49,29,18,83,52,21,30.32,30.10,29.74,10,10,10,25,7,33,T,3,,282
2013-4-26,59,43,27,35,28,24,92,61,30,30.44,30.39,30.32,10,10,10,15,2,22,0.00,5,,324
2013-4-27,65,48,31,36,28,13,96,55,14,30.45,30.38,30.29,10,10,8,12,2,15,0.00,2,,312
2013-4-28,71,51,30,37,31,28,92,57,22,30.35,30.25,30.15,10,10,10,12,2,18,0.00,0,,133
2013-4-29,68,55,42,39,35,24,76,53,29,30.26,30.22,30.17,10,10,10,21,4,26,0.00,5,,173
2013-4-30,72,58,44,43,34,21,66,46,25,30.34,30.28,30.25,10,10,10,13,2,18,0.00,6,,147